Weather Roundup
Issued by NWS

Home | Current Version | Previous Version | Text Only | Print | Product List | Glossary On
Versions: 1 2 3 4 5 6 7 8 9 10 11 12 13 14 15 16 17 18 19 20 21 22 23 24 25 26 27 28 29 30 31 32 33 34 35 36 37 38 39 40 41 42 43 44 45 46 47 48 49 50
159
NZUS93 KARX 280059
HRRWXR

CURRENT HOURLY OBSERVATIONS ACROSS
MUCH OF THE UPPER MISSISSIPPI VALLEY
NATIONAL WEATHER SERVICE LA CROSSE WI
800 PM CDT WED JUL 27 2016


...SOUTHEAST MINNESOTA...


CITY           SKY/WX    TMP DP  RH WIND       PRES   REMARKS
ROCHESTER      MOCLDY    72  69  90 NW7       29.93F
ROCHESTER/MAYO MOCLDY    70  69  96 NW8       29.92F
WINONA         MOCLDY    77  70  78 N7        29.91R
AUSTIN         CLOUDY    73  66  78 NW7       29.93F
ALBERT LEA     CLOUDY    72  68  88 CALM      29.94S
DODGE CENTER   CLOUDY    70  66  88 CALM      29.93F
PRESTON        CLOUDY    73  67  81 SW5       29.92F
OWATONNA       MOCLDY    73  68  83 CALM      29.93F
FARIBAULT      PTCLDY    72  70  94 NW3       29.94S
$$

...ELSEWHERE IN MINNESOTA...


CITY           SKY/WX    TMP DP  RH WIND       PRES   REMARKS
MINNEAPOLIS    MOCLDY    72  64  76 N12       29.93F
INTNL FALLS    CLEAR     72  54  53 N9        30.04S
DULUTH         PTCLDY    65  60  84 NE5       30.03S
RED WING       CLOUDY    72  70  94 NW6       29.90S
REDWOOD FALLS  CLEAR     76  64  66 N5        29.97R
MANKATO        PTCLDY    73  64  73 N7        29.95S
WORTHINGTON    CLEAR     76  65  68 N10       30.00R
FAIRMONT       PTCLDY    75  64  69 N9        29.95R
$$

...SOUTHWEST WISCONSIN...


CITY           SKY/WX    TMP DP  RH WIND       PRES   REMARKS
LA CROSSE      PTCLDY    80  67  64 S6        29.89F
PRAIRIE DU CHI CLOUDY    79  64  60 CALM      29.91F
BOSCOBEL       CLOUDY    79  69  71 CALM      29.92F
LONE ROCK      NOT AVBL
PLATTEVILLE    PTCLDY    78  72  81 NW3       29.95S
FORT MC COY    MOCLDY    76  71  83 CALM      29.93F
MAUSTON-NEW LI CLOUDY    77  70  79 CALM      29.94S
VIROQUA        FAIR      75  69  80 CALM      29.94F
WIS DELLS      NOT AVBL
$$

...ELSEWHERE IN WISCONSIN...


CITY           SKY/WX    TMP DP  RH WIND       PRES   REMARKS
MILWAUKEE      MOCLDY    74  67  78 NE5       29.94S
MADISON        CLOUDY    79  68  69 NE3       29.94R
GREEN BAY      MOCLDY    75  66  73 NE6       29.95S
EAU CLAIRE     LGT RAIN  68  67  96 NE12      29.93F
BLACK RVR FLS  CLOUDY    76  64  66 N6G16     29.93S
MEDFORD        RAIN      62  62 100 E3        30.01S
WAUSAU         RAIN      67  65  93 NW12      29.99R
WIS RAPIDS     LGT RAIN  68  64  87 CALM      29.96F
MARSHFIELD     CLOUDY    68  63  84 NE7       29.98R
RICE LAKE      CLOUDY    66  64  93 E8        29.99R
$$

...NORTHEAST IOWA...


CITY           SKY/WX    TMP DP  RH WIND       PRES   REMARKS
WATERLOO       CLEAR     76  67  73 W3        29.93R
DUBUQUE        PTCLDY    78  69  73 N5        29.95R
DECORAH        MOCLDY    73  70  88 CALM      29.92F
MASON CITY     TSTM      68  66  93 NW6       29.96R VSB 1
CHARLES CITY   CLOUDY    73  73 100 CALM      29.94F
OELWEIN        PTCLDY    75  70  83 NW5       29.95R
$$

...ELSEWHERE IN IOWA...


CITY           SKY/WX    TMP DP  RH WIND       PRES   REMARKS
DES MOINES     PTCLDY    83  67  58 CALM      29.91R
IOWA CITY      MOCLDY    82  69  64 N9        29.92R
FORT DODGE     PTCLDY    79  70  73 SW3       29.94R
MARSHALLTOWN   CLEAR     80  69  69 CALM      29.93R
CEDAR RAPIDS   MOCLDY    79  73  82 N5        29.92R
$$

...NORTHERN ILLINOIS...


CITY           SKY/WX    TMP DP  RH WIND       PRES   REMARKS
CHICAGO-OHARE  CLOUDY    83  61  47 E10       29.91S
CHICAGO-MIDWAY MOCLDY    83  64  52 E8        29.91S
MOLINE         PTCLDY    81  73  76 CALM      29.90S
ROCKFORD       MOCLDY    81  68  64 CALM      29.94R
PEORIA         CLEAR     83  72  69 SE3       29.91R
$$

NOTE: "FAIR" INDICATES FEW OR NO CLOUDS BELOW 12,000 FEET WITH NO
SIGNIFICANT WEATHER AND/OR OBSTRUCTIONS TO VISIBILITY. WIND
SPEEDS ARE IN MILES-PER-HOUR.




USA.gov is the U.S. government's official web portal to all federal, state and local government web resources and services.